This is the latest recevied weather packets stored in our database for station/object IU0SZS-10. If no packets are shown the sender has not sent any weather packets the latest 10 day(s).
| Time | Temp. | Humidity | Pressure | Rain* | Wind** | Luminosity | Snow |
|---|---|---|---|---|---|---|---|
| 1777203854 | 20.56° C | 29% | 919.3 hPa | - | - | - | - |
| 1777203771 | 20.56° C | 29% | 919.3 hPa | - | - | - | - |
| 1777202871 | 19.44° C | 29% | 919.4 hPa | - | - | - | - |
| 1777201970 | 18.89° C | 29% | 919.3 hPa | - | - | - | - |
| 1777201070 | 18.33° C | 29% | 919.3 hPa | - | - | - | - |
| 1777200170 | 18.89° C | 31% | 919.5 hPa | - | - | - | - |
| 1777199270 | 18.33° C | 29% | 919.5 hPa | - | - | - | - |
| 1777198425 | 17.22° C | 29% | 919.4 hPa | - | - | - | - |
| 1777198370 | 17.22° C | 29% | 919.4 hPa | - | - | - | - |
| 1777197469 | 16.11° C | 30% | 919.4 hPa | - | - | - | - |
| 1777196569 | 16.11° C | 31% | 919.4 hPa | - | - | - | - |
| 1777195669 | 15.56° C | 27% | 919.3 hPa | - | - | - | - |
| 1777194768 | 15° C | 27% | 919.3 hPa | - | - | - | - |
| 1777193868 | 15° C | 27% | 919.4 hPa | - | - | - | - |
| 1777192968 | 15° C | 32% | 919.3 hPa | - | - | - | - |
| 1777192108 | 13.89° C | 29% | 919.2 hPa | - | - | - | - |
| 1777192068 | 13.89° C | 29% | 919.2 hPa | - | - | - | - |
| 1777191168 | 13.33° C | 34% | 919.2 hPa | - | - | - | - |
| 1777190268 | 12.78° C | 36% | 919.1 hPa | - | - | - | - |
| 1777189410 | 12.22° C | 32% | 918.9 hPa | - | - | - | - |
| 1777189368 | 12.22° C | 32% | 918.9 hPa | - | - | - | - |
| 1777188467 | 11.67° C | 34% | 918.7 hPa | - | - | - | - |
| 1777187567 | 11.11° C | 34% | 918.5 hPa | - | - | - | - |
| 1777186667 | 11.11° C | 35% | 918.4 hPa | - | - | - | - |
| 1777185767 | 11.11° C | 33% | 918.4 hPa | - | - | - | - |
* Rain since midnight (hover to see other rain measurements)
** Current wind speed in m/s (hover to see current wind gust speed)